New York Downtown Manhattan/w, NY

5:31 AM EST on December 13, 2019 (GMT -0500)
New York Downtown Manhattan/w

Weather History for KJRB - October, 2019

Change the Weather History Date:

Saturday, October 12, 2019

  Actual Average (WUND) Record (WUND)
Temperature  
Mean Temperature 62 °F -  
Max Temperature 69 °F - - (-1)
Min Temperature 57 °F - - (-1)
Degree Days  
Heating Degree Days 2    
Growing Degree Days 12 (Base 50)    
Moisture  
Dew Point 51 °F    
Average Humidity 66    
Maximum Humidity 75    
Minimum Humidity 55    
Precipitation  
Precipitation 0.00 in - - ()
Sea Level Pressure  
Sea Level Pressure 29.98 in    
Wind  
Wind Speed 7 mph ()    
Max Wind Speed 13 mph    
Max Gust Speed 21 mph    
Visibility 9.9 miles    
Events      
Averages and records for this station are not official NWS values.
T = Trace of Precipitation, MM = Missing Value Source: Averaged Metar Reports

Daily Weather History Graph

Daily Weather History Graph

Search for Another Location

Airport or City:

Astronomy

Oct. 12, 2019 Rise Set
Actual Time 7:03 AM EDT 6:20 PM EDT
Civil Twilight 6:36 AM EDT 6:48 PM EDT
Nautical Twilight 6:04 AM EDT 7:19 PM EDT
Astronomical Twilight 5:32 AM EDT 7:51 PM EDT
Moon 6:16 PM EDT (10/12) 5:37 AM EDT (10/12)
Length of Visible Light 12h 11m
Length of Day
11h 17m
Waxing Gibbous, 99% of the Moon is Illuminated
Oct 12
Waxing Gibbous
Oct 13
Full
Oct 21
Last Quarter
Oct 27
New
Nov 4
First Quarter

Hourly Weather History & Observations

Time (EDT) Temp. Dew Point Humidity Pressure Visibility Wind Dir Wind Speed Gust Speed Precip Events Conditions
12:56 AM 59.0 °F 48.0 °F 67% 30.02 in 10.0 mi NNE 11.5 mph 20.7 mph N/A   Scattered Clouds
1:56 AM 57.9 °F 46.9 °F 67% 30.01 in 10.0 mi NE 12.7 mph 17.3 mph N/A   Overcast
2:56 AM 59.0 °F 48.0 °F 67% 30.00 in 10.0 mi NE 8.1 mph - N/A   Overcast
3:56 AM 59.0 °F 48.9 °F 69% 29.99 in 10.0 mi NNE 9.2 mph 16.1 mph N/A   Overcast
4:56 AM 57.9 °F 48.9 °F 72% 29.99 in 10.0 mi NE 5.8 mph - N/A   Overcast
5:56 AM 57.9 °F 48.9 °F 72% 29.98 in 10.0 mi NE 8.1 mph 16.1 mph N/A   Overcast
6:56 AM 57.9 °F 50.0 °F 75% 29.98 in 10.0 mi NE 9.2 mph - N/A   Overcast
7:56 AM 57.9 °F 50.0 °F 75% 29.99 in 10.0 mi NE 8.1 mph - N/A   Overcast
8:56 AM 59.0 °F 50.0 °F 72% 30.00 in 10.0 mi Variable 4.6 mph - N/A   Overcast
9:56 AM 59.0 °F 50.0 °F 72% 30.01 in 8.0 mi Variable 5.8 mph - N/A   Overcast
10:56 AM 60.1 °F 48.9 °F 67% 30.00 in 10.0 mi Calm Calm - N/A   Overcast
11:56 AM 62.1 °F 51.1 °F 67% 29.99 in 10.0 mi Variable 4.6 mph - N/A   Overcast
12:34 PM 62.6 °F 50.0 °F 63% 29.99 in 10.0 mi Variable 4.6 mph - N/A   Partly Cloudy
12:56 PM 64.0 °F 50.0 °F 60% 29.98 in 10.0 mi Variable 4.6 mph - N/A   Partly Cloudy
1:56 PM 66.0 °F 51.1 °F 59% 29.96 in 10.0 mi SE 3.5 mph - N/A   Clear
2:56 PM 68.0 °F 51.1 °F 55% 29.95 in 10.0 mi Calm Calm - N/A   Clear
3:56 PM 68.0 °F 52.0 °F 56% 29.94 in 10.0 mi South 4.6 mph - N/A   Clear
4:56 PM 66.9 °F 53.1 °F 61% 29.95 in 10.0 mi WSW 4.6 mph - N/A   Partly Cloudy
5:56 PM 66.9 °F 54.0 °F 63% 29.94 in 10.0 mi WSW 3.5 mph - 0.00 in   Mostly Cloudy
6:56 PM 66.0 °F 55.0 °F 68% 29.95 in 10.0 mi SW 8.1 mph - N/A   Mostly Cloudy
7:56 PM 64.9 °F 53.1 °F 65% 29.97 in 10.0 mi West 10.4 mph - N/A   Partly Cloudy
8:56 PM 64.0 °F 52.0 °F 65% 29.99 in 10.0 mi West 6.9 mph - N/A   Clear
9:56 PM 63.0 °F 51.1 °F 65% 29.99 in 10.0 mi WSW 5.8 mph - N/A   Clear
10:56 PM 62.1 °F 52.0 °F 70% 30.00 in 10.0 mi WSW 6.9 mph - N/A   Clear
11:56 PM 62.1 °F 51.1 °F 67% 30.00 in 10.0 mi WSW 6.9 mph - N/A   Scattered Clouds